Погода в Смелом

Украина / Сумская область     50°55′27″N   33°35′10″E
темп.,
°C
ветер,
м/с
пор.,
м/с
влажн.,
%
обл.,
%
осадки,
мм/ч
давл.,
гПа
погр.,
м
10 мая, пн
пн1000:00+4сз34770 0.0 102555
03:00+3ссз34782 0.0 102656
06:00+3ссз35793 0.0 102786
09:00+9ссз46620 0.0 1027441
12:00+13с56465 0.0 10261788
15:00+14с68465 0.0 10252112
18:00+13с58585 0.0 10241218
21:00+8с477998 0.0 1024109
11 мая, вт
вт1100:00+8с51469100 0.0 1023437
03:00+9с6136297 0.0 1022449
06:00+9с6147099 0.0 1021382
09:00+12ссв8137454 0.0 1020579
12:00+17св810676 0.0 1019970
15:00+18св71073100 0.1 10181443
18:00+11всв51183100 0.4 1020567
21:00+8всв411935 0.4 1021292
12 мая, ср
ср1200:00+7всв613886 0.0 1021628
03:00+8в71379100 0.0 10201214
06:00+8всв6128085 0.0 1020726
09:00+10в81576100 0.0 10201341
12:00+10в5980100 0.1 10181046
15:00+8в3792100 0.9 1017462
18:00+8св249436 0.1 1016274
21:00+7всв47955 0.2 1015151
13 мая, чт
чт1300:00+5в369886 0.0 1014124
03:00+5юв369829 0.0 1014113
06:00+5юв3697100 0.0 1014134
09:00+11юв577991 0.0 1015508
12:00+15ююв6860100 0.0 10141479
15:00+17ююв5760100 0.0 10131608
18:00+16вюв4975100 0.0 1013622
21:00+14в5138296 0.1 1012330
14 мая, пт
пт1400:00+13вюв61685100 0.1 1011368
03:00+13юв5139497 2.3 1010329
06:00+12вюв499787 0.4 1009239
09:00+16юв5791100 0.9 1009496
12:00+18ю478086 0.0 1009849
15:00+22ююз56609 0.3 10091576
18:00+20юз3570100 0.5 1008384
21:00+16ююз2281100 0.6 100911